This is the latest recevied weather packets stored in our database for station/object EA5JUX. If no packets are shown the sender has not sent any weather packets the latest 10 day(s).
| Time | Temp. | Humidity | Pressure | Rain* | Wind** | Luminosity | Snow |
|---|---|---|---|---|---|---|---|
| 1788162434 | 26.11° C | 74% | 1016.5 hPa | 0 mm | - | - | - |
| 1788162134 | 25.56° C | 75% | 1016.5 hPa | 0 mm | - | - | - |
| 1788161834 | 25° C | 75% | 1016.8 hPa | 0 mm | - | - | - |
| 1788161534 | 25.56° C | 76% | 1016.4 hPa | 0 mm | - | - | - |
| 1788161234 | 25° C | 77% | 1016.5 hPa | 0 mm | - | - | - |
| 1788160934 | 25° C | 78% | 1016.5 hPa | 0 mm | - | - | - |
| 1788160634 | 24.44° C | 80% | 1016.3 hPa | 0 mm | - | - | - |
| 1788160334 | 23.89° C | 81% | 1016 hPa | 0 mm | - | - | - |
| 1788160035 | 23.89° C | 82% | 1016.1 hPa | 0 mm | - | - | - |
| 1788159742 | 24.44° C | 82% | 1016 hPa | 0 mm | - | - | - |
| 1788159434 | 23.33° C | 83% | 1016.2 hPa | 0 mm | - | - | - |
| 1788159152 | 22.78° C | 84% | 1016.2 hPa | 0 mm | - | - | - |
| 1788158834 | 22.22° C | 85% | 1016 hPa | 0 mm | - | - | - |
| 1788158534 | 22.22° C | 85% | 1015.9 hPa | 0 mm | - | - | - |
| 1788158234 | 21.67° C | 85% | 1016 hPa | 0 mm | - | - | - |
| 1788157934 | 21.11° C | 85% | 1015.7 hPa | 0 mm | - | - | - |
| 1788157634 | 21.11° C | 85% | 1015.5 hPa | 0 mm | - | - | - |
| 1788157334 | 21.11° C | 85% | 1015.6 hPa | 0 mm | - | - | - |
| 1788157034 | 21.11° C | 85% | 1015.5 hPa | 0 mm | - | - | - |
| 1788156734 | 21.11° C | 85% | 1015.6 hPa | 0 mm | - | - | - |
| 1788156454 | 20.56° C | 85% | 1015.7 hPa | 0 mm | - | - | - |
| 1788156134 | 20.56° C | 85% | 1015.4 hPa | 0 mm | - | - | - |
| 1788155834 | 20.56° C | 85% | 1015.6 hPa | 0 mm | - | - | - |
| 1788155534 | 20.56° C | 86% | 1015.5 hPa | 0 mm | - | - | - |
| 1788155234 | 20.56° C | 86% | 1015.4 hPa | 0 mm | - | - | - |
* Rain latest hour (hover to see other rain measurements)
** Current wind speed in m/s (hover to see current wind gust speed)